Year,Month,Day,Hour,Minute,Value (Times are PST for temperature in C)
2015,01,28,00,00,2.30
2015,01,28,00,01,2.30
2015,01,28,00,02,2.30
2015,01,28,00,03,2.30
2015,01,28,00,04,2.30
2015,01,28,00,05,2.30
2015,01,28,00,06,2.30
2015,01,28,00,07,2.30
2015,01,28,00,08,2.30
2015,01,28,00,09,2.30
2015,01,28,00,10,2.20
2015,01,28,00,11,2.20
2015,01,28,00,12,2.20
2015,01,28,00,13,2.20
2015,01,28,00,14,2.20
2015,01,28,00,15,2.20
2015,01,28,00,16,2.30
2015,01,28,00,17,2.30
2015,01,28,00,18,2.30
2015,01,28,00,19,2.30
2015,01,28,00,20,2.30
2015,01,28,00,21,2.30
2015,01,28,00,22,2.30
2015,01,28,00,23,2.30
2015,01,28,00,24,2.30
2015,01,28,00,25,2.30
2015,01,28,00,26,2.30
2015,01,28,00,27,2.30
2015,01,28,00,28,2.30
2015,01,28,00,29,2.30
2015,01,28,00,30,2.30
2015,01,28,00,31,2.20
2015,01,28,00,32,2.20
2015,01,28,00,33,2.20
2015,01,28,00,34,2.20
2015,01,28,00,35,2.10
2015,01,28,00,36,2.10
2015,01,28,00,37,2.10
2015,01,28,00,38,2.10
2015,01,28,00,39,2.10
2015,01,28,00,40,2.00
2015,01,28,00,41,2.00
2015,01,28,00,42,2.00
2015,01,28,00,43,2.00
2015,01,28,00,44,2.00
2015,01,28,00,45,2.00
2015,01,28,00,46,2.00
2015,01,28,00,47,2.00
2015,01,28,00,48,2.00
2015,01,28,00,49,2.00
2015,01,28,00,50,2.00
2015,01,28,00,51,2.00
2015,01,28,00,52,2.00
2015,01,28,00,53,2.00
2015,01,28,00,54,2.00
2015,01,28,00,55,2.10
2015,01,28,00,56,2.10
2015,01,28,00,57,2.10
2015,01,28,00,58,2.10
2015,01,28,00,59,2.10
2015,01,28,01,00,2.10
2015,01,28,01,01,2.10
2015,01,28,01,02,2.10
2015,01,28,01,03,2.10
2015,01,28,01,04,2.00
2015,01,28,01,05,2.00
2015,01,28,01,06,2.00
2015,01,28,01,07,2.00
2015,01,28,01,08,1.90
2015,01,28,01,09,1.90
2015,01,28,01,10,1.90
2015,01,28,01,11,1.90
2015,01,28,01,12,1.90
2015,01,28,01,13,1.90
2015,01,28,01,14,1.80
2015,01,28,01,15,1.80
2015,01,28,01,16,1.80
2015,01,28,01,17,1.80
2015,01,28,01,18,1.80
2015,01,28,01,19,1.70
2015,01,28,01,20,1.70
2015,01,28,01,21,1.70
2015,01,28,01,22,1.70
2015,01,28,01,23,1.70
2015,01,28,01,24,1.70
2015,01,28,01,25,1.70
2015,01,28,01,26,1.60
2015,01,28,01,27,1.60
2015,01,28,01,28,1.60
2015,01,28,01,29,1.60
2015,01,28,01,30,1.60
2015,01,28,01,31,1.60
2015,01,28,01,32,1.60
2015,01,28,01,33,1.60
2015,01,28,01,34,1.60
2015,01,28,01,35,1.60
2015,01,28,01,36,1.60
2015,01,28,01,37,1.50
2015,01,28,01,38,1.50
2015,01,28,01,39,1.50
2015,01,28,01,40,1.50
2015,01,28,01,41,1.50
2015,01,28,01,42,1.50
2015,01,28,01,43,1.50
2015,01,28,01,44,1.50
2015,01,28,01,45,1.60
2015,01,28,01,46,1.60
2015,01,28,01,47,1.60
2015,01,28,01,48,1.60
2015,01,28,01,49,1.60
2015,01,28,01,50,1.60
2015,01,28,01,51,1.60
2015,01,28,01,52,1.60
2015,01,28,01,53,1.60
2015,01,28,01,54,1.60
2015,01,28,01,55,1.60
2015,01,28,01,56,1.60
2015,01,28,01,57,1.70
2015,01,28,01,58,1.70
2015,01,28,01,59,1.70
2015,01,28,02,00,1.70
2015,01,28,02,01,1.70
2015,01,28,02,02,1.70
2015,01,28,02,03,1.60
2015,01,28,02,04,1.60
2015,01,28,02,05,1.60
2015,01,28,02,06,1.60
2015,01,28,02,07,1.50
2015,01,28,02,08,1.50
2015,01,28,02,09,1.50
2015,01,28,02,10,1.50
2015,01,28,02,11,1.50
2015,01,28,02,12,1.50
2015,01,28,02,13,1.50
2015,01,28,02,14,1.50
2015,01,28,02,15,1.50
2015,01,28,02,16,1.50
2015,01,28,02,17,1.50
2015,01,28,02,18,1.50
2015,01,28,02,19,1.50
2015,01,28,02,20,1.50
2015,01,28,02,21,1.40
2015,01,28,02,22,1.40
2015,01,28,02,23,1.40
2015,01,28,02,24,1.40
2015,01,28,02,25,1.40
2015,01,28,02,26,1.40
2015,01,28,02,27,1.30
2015,01,28,02,28,1.30
2015,01,28,02,29,1.30
2015,01,28,02,30,1.30
2015,01,28,02,31,1.30
2015,01,28,02,32,1.30
2015,01,28,02,33,1.30
2015,01,28,02,34,1.30
2015,01,28,02,35,1.30
2015,01,28,02,36,1.30
2015,01,28,02,37,1.30
2015,01,28,02,38,1.30
2015,01,28,02,39,1.30
2015,01,28,02,40,1.20
2015,01,28,02,41,1.20
2015,01,28,02,42,1.20
2015,01,28,02,43,1.20
2015,01,28,02,44,1.20
2015,01,28,02,45,1.20
2015,01,28,02,46,1.10
2015,01,28,02,47,1.10
2015,01,28,02,48,1.10
2015,01,28,02,49,1.10
2015,01,28,02,50,1.10
2015,01,28,02,51,1.10
2015,01,28,02,52,1.10
2015,01,28,02,53,1.00
2015,01,28,02,54,1.00
2015,01,28,02,55,1.00
2015,01,28,02,56,1.00
2015,01,28,02,57,0.90
2015,01,28,02,58,0.90
2015,01,28,02,59,0.90
2015,01,28,03,00,0.90
2015,01,28,03,01,0.90
2015,01,28,03,02,0.90
2015,01,28,03,03,0.90
2015,01,28,03,04,0.80
2015,01,28,03,05,0.90
2015,01,28,03,06,0.80
2015,01,28,03,07,0.80
2015,01,28,03,08,0.80
2015,01,28,03,09,0.80
2015,01,28,03,10,0.80
2015,01,28,03,11,0.80
2015,01,28,03,12,0.80
2015,01,28,03,13,0.70
2015,01,28,03,14,0.70
2015,01,28,03,15,0.70
2015,01,28,03,16,0.70
2015,01,28,03,17,0.70
2015,01,28,03,18,0.70
2015,01,28,03,19,0.70
2015,01,28,03,20,0.70
2015,01,28,03,21,0.60
2015,01,28,03,22,0.60
2015,01,28,03,23,0.60
2015,01,28,03,24,0.60
2015,01,28,03,25,0.60
2015,01,28,03,26,0.50
2015,01,28,03,27,0.50
2015,01,28,03,28,0.50
2015,01,28,03,29,0.50
2015,01,28,03,30,0.50
2015,01,28,03,31,0.50
2015,01,28,03,32,0.50
2015,01,28,03,33,0.60
2015,01,28,03,34,0.60
2015,01,28,03,35,0.60
2015,01,28,03,36,0.60
2015,01,28,03,37,0.60
2015,01,28,03,38,0.60
2015,01,28,03,39,0.60
2015,01,28,03,40,0.60
2015,01,28,03,41,0.60
2015,01,28,03,42,0.60
2015,01,28,03,43,0.60
2015,01,28,03,44,0.60
2015,01,28,03,45,0.70
2015,01,28,03,46,0.70
2015,01,28,03,47,0.70
2015,01,28,03,48,0.70
2015,01,28,03,49,0.60
2015,01,28,03,50,0.60
2015,01,28,03,51,0.60
2015,01,28,03,52,0.60
2015,01,28,03,53,0.60
2015,01,28,03,54,0.60
2015,01,28,03,55,0.60
2015,01,28,03,56,0.60
2015,01,28,03,57,0.60
2015,01,28,03,58,0.60
2015,01,28,03,59,0.60
2015,01,28,04,00,0.60
2015,01,28,04,01,0.60
2015,01,28,04,02,0.60
2015,01,28,04,03,0.60
2015,01,28,04,04,0.60
2015,01,28,04,05,0.60
2015,01,28,04,06,0.60
2015,01,28,04,07,0.60
2015,01,28,05,02,0.30
2015,01,28,05,03,0.30
2015,01,28,05,04,0.30
2015,01,28,05,05,0.30
2015,01,28,05,06,0.30
2015,01,28,05,07,0.30
2015,01,28,05,08,0.30
2015,01,28,05,09,0.20
2015,01,28,05,10,0.20
2015,01,28,05,11,0.20
2015,01,28,05,12,0.20
2015,01,28,05,13,0.20
2015,01,28,05,14,0.20
2015,01,28,05,15,0.20
2015,01,28,05,16,0.20
2015,01,28,05,17,0.20
2015,01,28,05,18,0.20
2015,01,28,05,19,0.10
2015,01,28,05,20,0.10
2015,01,28,05,21,0.10
2015,01,28,05,22,0.10
2015,01,28,05,23,0.10
2015,01,28,05,24,0.10
2015,01,28,05,25,0.10
2015,01,28,05,26,0.10
2015,01,28,05,27,0.10
2015,01,28,05,28,0.10
2015,01,28,05,29,0.10
2015,01,28,05,30,0.10
2015,01,28,05,31,0.00
2015,01,28,05,32,0.00
2015,01,28,05,33,0.00
2015,01,28,05,34,0.00
2015,01,28,05,35,0.00
2015,01,28,05,36,0.00
2015,01,28,05,37,-0.10
2015,01,28,05,38,-0.10
2015,01,28,05,39,-0.10
2015,01,28,05,40,-0.10
2015,01,28,05,41,-0.10
2015,01,28,05,42,-0.10
2015,01,28,05,43,-0.10
2015,01,28,05,44,-0.10
2015,01,28,05,45,0.00
2015,01,28,05,46,0.00
2015,01,28,05,47,0.00
2015,01,28,05,48,0.00
2015,01,28,05,49,0.10
2015,01,28,05,50,0.10
2015,01,28,05,51,0.10
2015,01,28,05,52,0.10
2015,01,28,05,53,0.10
2015,01,28,05,54,0.10
2015,01,28,05,55,0.10
2015,01,28,05,56,0.20
2015,01,28,05,57,0.20
2015,01,28,05,58,0.20
2015,01,28,05,59,0.20
2015,01,28,06,00,0.20
2015,01,28,06,01,0.20
2015,01,28,06,02,0.30
2015,01,28,06,03,0.30
2015,01,28,06,04,0.30
2015,01,28,06,05,0.30
2015,01,28,06,06,0.30
2015,01,28,06,07,0.30
2015,01,28,06,08,0.30
2015,01,28,06,09,0.30
2015,01,28,06,10,0.30
2015,01,28,06,11,0.40
2015,01,28,06,12,0.40
2015,01,28,06,13,0.40
2015,01,28,06,14,0.40
2015,01,28,06,15,0.40
2015,01,28,06,16,0.40
2015,01,28,06,17,0.40
2015,01,28,06,18,0.40
2015,01,28,06,19,0.50
2015,01,28,06,20,0.50
2015,01,28,06,21,0.50
2015,01,28,06,22,0.50
2015,01,28,06,23,0.50
2015,01,28,06,24,0.50
2015,01,28,06,25,0.50
2015,01,28,06,26,0.60
2015,01,28,06,27,0.60
2015,01,28,06,28,0.60
2015,01,28,06,29,0.60
2015,01,28,06,30,0.60
2015,01,28,06,31,0.60
2015,01,28,06,32,0.60
2015,01,28,06,33,0.60
2015,01,28,06,34,0.60
2015,01,28,06,35,0.60
2015,01,28,06,36,0.60
2015,01,28,06,37,0.60
2015,01,28,06,38,0.60
2015,01,28,06,39,0.60
2015,01,28,06,40,0.60
2015,01,28,06,41,0.60
2015,01,28,06,42,0.60
2015,01,28,06,43,0.60
2015,01,28,06,44,0.60
2015,01,28,06,45,0.60
2015,01,28,06,46,0.60
2015,01,28,06,47,0.60
2015,01,28,06,48,0.60
2015,01,28,06,49,0.60
2015,01,28,06,50,0.60
2015,01,28,06,51,0.50
2015,01,28,06,52,0.50
2015,01,28,06,53,0.50
2015,01,28,06,54,0.50
2015,01,28,06,55,0.50
2015,01,28,06,56,0.50
2015,01,28,06,57,0.50
2015,01,28,06,58,0.50
2015,01,28,06,59,0.50
2015,01,28,07,00,0.50
2015,01,28,07,01,0.50
2015,01,28,07,02,0.50
2015,01,28,07,03,0.50
2015,01,28,07,04,0.50
2015,01,28,07,05,0.50
2015,01,28,07,06,0.50
2015,01,28,07,07,0.50
2015,01,28,07,08,0.50
2015,01,28,07,09,0.50
2015,01,28,07,10,0.50
2015,01,28,07,11,0.50
2015,01,28,07,12,0.50
2015,01,28,07,13,0.50
2015,01,28,07,14,0.50
2015,01,28,07,15,0.50
2015,01,28,07,16,0.50
2015,01,28,07,17,0.50
2015,01,28,07,18,0.50
2015,01,28,07,19,0.60
2015,01,28,07,20,0.60
2015,01,28,07,21,0.60
2015,01,28,07,22,0.60
2015,01,28,07,23,0.60
2015,01,28,07,24,0.60
2015,01,28,07,25,0.60
2015,01,28,07,26,0.60
2015,01,28,07,27,0.60
2015,01,28,07,28,0.60
2015,01,28,07,29,0.60
2015,01,28,07,30,0.60
2015,01,28,07,31,0.60
2015,01,28,07,32,0.60
2015,01,28,07,33,0.60
2015,01,28,07,34,0.60
2015,01,28,07,35,0.60
2015,01,28,07,36,0.70
2015,01,28,07,37,0.70
2015,01,28,07,38,0.70
2015,01,28,07,39,0.70
2015,01,28,07,40,0.70
2015,01,28,07,41,0.70
2015,01,28,07,42,0.70
2015,01,28,07,43,0.70
2015,01,28,07,44,0.70
2015,01,28,07,45,0.70
2015,01,28,07,46,0.70
2015,01,28,07,47,0.70
2015,01,28,07,48,0.70
2015,01,28,07,49,0.70
2015,01,28,07,50,0.70
2015,01,28,07,51,0.70
2015,01,28,07,52,0.70
2015,01,28,07,53,0.70
2015,01,28,07,54,0.70
2015,01,28,07,55,0.80
2015,01,28,07,56,0.80
2015,01,28,07,57,0.80
2015,01,28,07,58,0.80
2015,01,28,07,59,0.80
2015,01,28,08,00,0.80
2015,01,28,08,01,0.80
2015,01,28,08,02,0.80
2015,01,28,08,03,0.80
2015,01,28,08,04,0.80
2015,01,28,08,05,0.80
2015,01,28,08,06,0.80
2015,01,28,08,07,0.80
2015,01,28,08,08,0.80
2015,01,28,08,09,0.80
2015,01,28,08,10,0.80
2015,01,28,08,11,0.80
2015,01,28,08,12,0.90
2015,01,28,08,13,0.90
2015,01,28,08,14,0.90
2015,01,28,08,15,0.90
2015,01,28,08,16,0.90
2015,01,28,08,17,0.90
2015,01,28,08,18,0.90
2015,01,28,08,19,0.90
2015,01,28,08,20,0.90
2015,01,28,08,21,0.90
2015,01,28,08,22,0.90
2015,01,28,08,23,0.90
2015,01,28,08,24,0.90
2015,01,28,08,25,0.90
2015,01,28,08,26,0.90
2015,01,28,08,27,0.90
2015,01,28,08,28,0.90
2015,01,28,08,29,0.90
2015,01,28,08,30,0.90
2015,01,28,08,31,1.00
2015,01,28,08,32,1.00
2015,01,28,08,33,1.00
2015,01,28,08,34,1.10
2015,01,28,08,35,1.10
2015,01,28,08,36,1.10
2015,01,28,08,37,1.10
2015,01,28,08,38,1.10
2015,01,28,08,39,1.10
2015,01,28,08,40,1.20
2015,01,28,08,41,1.20
2015,01,28,08,42,1.20
2015,01,28,08,43,1.20
2015,01,28,08,44,1.20
2015,01,28,08,45,1.20
2015,01,28,08,46,1.20
2015,01,28,08,47,1.20
2015,01,28,08,48,1.20
2015,01,28,08,49,1.20
2015,01,28,08,50,1.30
2015,01,28,08,51,1.30
2015,01,28,08,52,1.30
2015,01,28,08,53,1.30
2015,01,28,08,54,1.30
2015,01,28,08,55,1.30
2015,01,28,08,56,1.40
2015,01,28,08,57,1.40
2015,01,28,08,58,1.40
2015,01,28,08,59,1.40
2015,01,28,09,00,1.50
2015,01,28,09,01,1.50
2015,01,28,09,02,1.50
2015,01,28,09,03,1.60
2015,01,28,09,04,1.60
2015,01,28,09,05,1.60
2015,01,28,09,06,1.60
2015,01,28,09,07,1.60
2015,01,28,09,08,1.60
2015,01,28,09,09,1.60
2015,01,28,09,10,1.60
2015,01,28,09,11,1.60
2015,01,28,09,12,1.60
2015,01,28,09,13,1.60
2015,01,28,09,14,1.60
2015,01,28,09,15,1.60
2015,01,28,09,16,1.60
2015,01,28,09,17,1.60
2015,01,28,09,18,1.60
2015,01,28,09,19,1.70
2015,01,28,09,20,1.70
2015,01,28,09,21,1.70
2015,01,28,09,22,1.70
2015,01,28,09,23,1.70
2015,01,28,09,24,1.70
2015,01,28,09,25,1.70
2015,01,28,09,26,1.70
2015,01,28,09,27,1.70
2015,01,28,09,28,1.80
2015,01,28,09,29,1.80
2015,01,28,09,30,1.80
2015,01,28,09,31,1.90
2015,01,28,09,32,1.90
2015,01,28,09,33,2.00
2015,01,28,09,34,2.00
2015,01,28,09,35,2.10
2015,01,28,09,36,2.10
2015,01,28,09,37,2.20
2015,01,28,09,38,2.20
2015,01,28,09,39,2.20
2015,01,28,09,40,2.20
2015,01,28,09,41,2.30
2015,01,28,09,42,2.30
2015,01,28,09,43,2.40
2015,01,28,09,44,2.50
2015,01,28,09,45,2.50
2015,01,28,09,46,2.60
2015,01,28,09,47,2.70
2015,01,28,09,48,2.70
2015,01,28,09,49,2.80
2015,01,28,09,50,2.80
2015,01,28,09,51,2.80
2015,01,28,09,52,2.90
2015,01,28,09,53,2.90
2015,01,28,09,54,2.90
2015,01,28,09,55,3.00
2015,01,28,09,56,3.00
2015,01,28,09,57,3.00
2015,01,28,09,58,3.00
2015,01,28,09,59,3.00
2015,01,28,10,00,3.00
2015,01,28,10,01,3.00
2015,01,28,10,02,3.00
2015,01,28,10,03,3.00
2015,01,28,10,04,3.00
2015,01,28,10,05,3.10
2015,01,28,10,06,3.10
2015,01,28,10,07,3.10
2015,01,28,10,08,3.10
2015,01,28,10,09,3.10
2015,01,28,10,10,3.10
2015,01,28,10,11,3.20
2015,01,28,10,12,3.20
2015,01,28,10,13,3.20
2015,01,28,10,14,3.20
2015,01,28,10,15,3.20
2015,01,28,10,16,3.30
2015,01,28,10,17,3.30
2015,01,28,10,18,3.20
2015,01,28,10,19,3.20
2015,01,28,10,20,3.20
2015,01,28,10,21,3.20
2015,01,28,10,22,3.10
2015,01,28,10,23,3.10
2015,01,28,10,24,3.10
2015,01,28,10,25,3.10
2015,01,28,10,26,3.10
2015,01,28,10,27,3.10
2015,01,28,10,28,3.10
2015,01,28,10,29,3.10
2015,01,28,10,30,3.20
2015,01,28,10,31,3.20
2015,01,28,10,32,3.30
2015,01,28,10,33,3.30
2015,01,28,10,34,3.30
2015,01,28,10,35,3.30
2015,01,28,10,36,3.40
2015,01,28,10,37,3.40
2015,01,28,10,38,3.40
2015,01,28,10,39,3.40
2015,01,28,10,40,3.50
2015,01,28,10,41,3.50
2015,01,28,10,42,3.60
2015,01,28,10,43,3.60
2015,01,28,10,44,3.70
2015,01,28,10,45,3.70
2015,01,28,10,46,3.70
2015,01,28,10,47,3.70
2015,01,28,10,48,3.70
2015,01,28,10,49,3.70
2015,01,28,10,50,3.70
2015,01,28,10,51,3.70
2015,01,28,10,52,3.70
2015,01,28,10,53,3.70
2015,01,28,10,54,3.80
2015,01,28,10,55,3.80
2015,01,28,10,56,3.80
2015,01,28,10,57,3.80
2015,01,28,10,58,3.90
2015,01,28,10,59,3.90
2015,01,28,11,00,4.00
2015,01,28,11,01,4.00
2015,01,28,11,02,4.00
2015,01,28,11,03,4.10
2015,01,28,11,04,4.10
2015,01,28,11,05,4.10
2015,01,28,11,06,4.10
2015,01,28,11,07,4.10
2015,01,28,11,08,4.20
2015,01,28,11,09,4.20
2015,01,28,11,10,4.20
2015,01,28,11,11,4.20
2015,01,28,11,12,4.20
2015,01,28,11,13,4.30
2015,01,28,11,14,4.30
2015,01,28,11,15,4.30
2015,01,28,11,16,4.30
2015,01,28,11,17,4.40
2015,01,28,11,18,4.40
2015,01,28,11,19,4.40
2015,01,28,11,20,4.40
2015,01,28,11,21,4.40
2015,01,28,11,22,4.40
2015,01,28,11,23,4.40
2015,01,28,11,24,4.40
2015,01,28,11,25,4.40
2015,01,28,11,26,4.50
2015,01,28,11,27,4.50
2015,01,28,11,28,4.50
2015,01,28,11,29,4.60
2015,01,28,11,30,4.60
2015,01,28,11,31,4.60
2015,01,28,11,32,4.60
2015,01,28,11,33,4.70
2015,01,28,11,34,4.70
2015,01,28,11,35,4.70
2015,01,28,11,36,4.70
2015,01,28,11,37,4.70
2015,01,28,11,38,4.70
2015,01,28,11,39,4.70
2015,01,28,11,40,4.70
2015,01,28,11,41,4.70
2015,01,28,11,42,4.70
2015,01,28,11,43,4.80
2015,01,28,11,44,4.80
2015,01,28,11,45,4.80
2015,01,28,11,46,4.80
2015,01,28,11,47,4.80
2015,01,28,11,48,4.80
2015,01,28,11,49,4.90
2015,01,28,11,50,4.90
2015,01,28,11,51,4.90
2015,01,28,11,52,5.00
2015,01,28,11,53,5.00
2015,01,28,11,54,5.10
2015,01,28,11,55,5.10
2015,01,28,11,56,5.10
2015,01,28,11,57,5.20
2015,01,28,11,58,5.20
2015,01,28,11,59,5.30
2015,01,28,12,00,5.30
2015,01,28,12,01,5.30
2015,01,28,12,02,5.30
2015,01,28,12,03,5.40
2015,01,28,12,04,5.40
2015,01,28,12,05,5.40
2015,01,28,12,06,5.50
2015,01,28,12,07,5.50
2015,01,28,12,08,5.50
2015,01,28,12,09,5.60
2015,01,28,12,10,5.60
2015,01,28,12,11,5.60
2015,01,28,12,12,5.70
2015,01,28,12,13,5.70
2015,01,28,12,14,5.80
2015,01,28,12,15,5.80
2015,01,28,12,16,5.80
2015,01,28,12,17,5.90
2015,01,28,12,18,5.90
2015,01,28,12,19,5.90
2015,01,28,12,20,5.90
2015,01,28,12,21,5.90
2015,01,28,12,22,6.00
2015,01,28,12,23,6.00
2015,01,28,12,24,6.00
2015,01,28,12,25,6.00
2015,01,28,12,26,6.10
2015,01,28,12,27,6.10
2015,01,28,12,28,6.10
2015,01,28,12,29,6.10
2015,01,28,12,30,6.10
2015,01,28,12,31,6.10
2015,01,28,12,32,6.10
2015,01,28,12,33,6.10
2015,01,28,12,34,6.10
2015,01,28,12,35,6.10
2015,01,28,12,36,6.20
2015,01,28,12,37,6.20
2015,01,28,12,38,6.20
2015,01,28,12,39,6.20
2015,01,28,12,40,6.20
2015,01,28,12,41,6.20
2015,01,28,12,42,6.20
2015,01,28,12,43,6.20
2015,01,28,12,44,6.20
2015,01,28,12,45,6.20
2015,01,28,12,46,6.20
2015,01,28,12,47,6.20
2015,01,28,12,48,6.20
2015,01,28,12,49,6.30
2015,01,28,12,50,6.30
2015,01,28,12,51,6.30
2015,01,28,12,52,6.30
2015,01,28,12,53,6.30
2015,01,28,12,54,6.30
2015,01,28,12,55,6.30
2015,01,28,12,56,6.30
2015,01,28,12,57,6.30
2015,01,28,12,58,6.30
2015,01,28,12,59,6.30
2015,01,28,13,00,6.30
2015,01,28,13,01,6.30
2015,01,28,13,02,6.30
2015,01,28,13,03,6.40
2015,01,28,13,04,6.40
2015,01,28,13,05,6.40
2015,01,28,13,06,6.40
2015,01,28,13,07,6.40
2015,01,28,13,08,6.40
2015,01,28,13,09,6.50
2015,01,28,13,10,6.50
2015,01,28,13,11,6.50
2015,01,28,13,12,6.50
2015,01,28,13,13,6.50
2015,01,28,13,14,6.60
2015,01,28,13,15,6.60
2015,01,28,13,16,6.60
2015,01,28,13,17,6.60
2015,01,28,13,18,6.60
2015,01,28,13,19,6.70
2015,01,28,13,20,6.70
2015,01,28,13,21,6.70
2015,01,28,13,22,6.80
2015,01,28,13,23,6.80
2015,01,28,13,24,6.80
2015,01,28,13,25,6.80
2015,01,28,13,26,6.90
2015,01,28,13,27,6.90
2015,01,28,13,28,6.90
2015,01,28,13,29,6.90
2015,01,28,13,30,7.00
2015,01,28,13,31,7.00
2015,01,28,13,32,7.00
2015,01,28,13,33,7.00
2015,01,28,13,34,7.10
2015,01,28,13,35,7.10
2015,01,28,13,36,7.10
2015,01,28,13,37,7.10
2015,01,28,13,38,7.10
2015,01,28,13,39,7.10
2015,01,28,13,40,7.20
2015,01,28,13,41,7.20
2015,01,28,13,42,7.20
2015,01,28,13,43,7.20
2015,01,28,13,44,7.20
2015,01,28,13,45,7.30
2015,01,28,13,46,7.30
2015,01,28,13,47,7.30
2015,01,28,13,48,7.30
2015,01,28,13,49,7.30
2015,01,28,13,50,7.40
2015,01,28,13,51,7.40
2015,01,28,13,52,7.40
2015,01,28,13,53,7.40
2015,01,28,13,54,7.50
2015,01,28,13,55,7.50
2015,01,28,13,56,7.50
2015,01,28,13,57,7.60
2015,01,28,13,58,7.60
2015,01,28,13,59,7.60
2015,01,28,14,00,7.60
2015,01,28,14,01,7.60
2015,01,28,14,02,7.60
2015,01,28,14,03,7.60
2015,01,28,14,04,7.70
2015,01,28,14,05,7.70
2015,01,28,14,06,7.70
2015,01,28,14,07,7.80
2015,01,28,14,08,7.80
2015,01,28,14,09,7.80
2015,01,28,14,10,7.80
2015,01,28,14,11,7.80
2015,01,28,14,12,7.90
2015,01,28,14,13,7.90
2015,01,28,14,14,7.90
2015,01,28,14,15,7.90
2015,01,28,14,16,8.00
2015,01,28,14,17,8.00
2015,01,28,14,18,8.00
2015,01,28,14,19,8.00
2015,01,28,14,20,8.00
2015,01,28,14,21,8.00
2015,01,28,14,22,8.00
2015,01,28,14,23,8.00
2015,01,28,14,24,8.00
2015,01,28,14,25,8.00
2015,01,28,14,26,8.00
2015,01,28,14,27,8.00
2015,01,28,14,28,8.00
2015,01,28,14,29,8.00
2015,01,28,14,30,8.00
2015,01,28,14,31,8.00
2015,01,28,14,32,8.10
2015,01,28,14,33,8.10
2015,01,28,14,34,8.10
2015,01,28,14,35,8.10
2015,01,28,14,36,8.10
2015,01,28,14,37,8.10
2015,01,28,14,38,8.10
2015,01,28,14,39,8.10
2015,01,28,14,40,8.10
2015,01,28,14,41,8.10
2015,01,28,14,42,8.10
2015,01,28,14,43,8.10
2015,01,28,14,44,8.10
2015,01,28,14,45,8.10
2015,01,28,14,46,8.00
2015,01,28,14,47,8.10
2015,01,28,14,48,8.10
2015,01,28,14,49,8.00
2015,01,28,14,50,8.00
2015,01,28,14,51,8.00
2015,01,28,14,52,8.00
2015,01,28,14,53,8.00
2015,01,28,14,54,8.00
2015,01,28,14,55,8.00
2015,01,28,14,56,8.00
2015,01,28,14,57,8.00
2015,01,28,14,58,8.00
2015,01,28,14,59,8.00
2015,01,28,15,00,8.00
2015,01,28,15,01,7.90
2015,01,28,15,02,7.90
2015,01,28,15,03,7.90
2015,01,28,15,04,7.90
2015,01,28,15,05,7.90
2015,01,28,15,06,7.90
2015,01,28,15,07,7.90
2015,01,28,15,08,7.90
2015,01,28,15,09,7.90
2015,01,28,15,10,7.90
2015,01,28,15,11,7.90
2015,01,28,15,12,7.90
2015,01,28,15,13,7.90
2015,01,28,15,14,7.90
2015,01,28,15,15,7.90
2015,01,28,15,16,7.90
2015,01,28,15,17,7.90
2015,01,28,15,18,7.90
2015,01,28,15,19,7.90
2015,01,28,15,20,7.90
2015,01,28,15,21,7.90
2015,01,28,15,22,7.80
2015,01,28,15,23,7.80
2015,01,28,15,24,7.80
2015,01,28,15,25,7.80
2015,01,28,15,26,7.80
2015,01,28,15,27,7.80
2015,01,28,15,28,7.80
2015,01,28,15,29,7.80
2015,01,28,15,30,7.80
2015,01,28,15,31,7.80
2015,01,28,15,32,7.80
2015,01,28,15,33,7.80
2015,01,28,15,34,7.80
2015,01,28,15,35,7.80
2015,01,28,15,36,7.80
2015,01,28,15,37,7.80
2015,01,28,15,38,7.80
2015,01,28,15,39,7.80
2015,01,28,15,40,7.80
2015,01,28,15,41,7.70
2015,01,28,15,42,7.70
2015,01,28,15,43,7.70
2015,01,28,15,44,7.70
2015,01,28,15,45,7.60
2015,01,28,15,46,7.60
2015,01,28,15,47,7.60
2015,01,28,15,48,7.60
2015,01,28,15,49,7.60
2015,01,28,15,50,7.50
2015,01,28,15,51,7.50
2015,01,28,15,52,7.40
2015,01,28,15,53,7.40
2015,01,28,15,54,7.40
2015,01,28,15,55,7.40
2015,01,28,15,56,7.40
2015,01,28,15,57,7.30
2015,01,28,15,58,7.30
2015,01,28,15,59,7.30
2015,01,28,16,00,7.30
2015,01,28,16,01,7.30
2015,01,28,16,02,7.30
2015,01,28,16,03,7.30
2015,01,28,16,04,7.30
2015,01,28,16,05,7.30
2015,01,28,16,06,7.20
2015,01,28,16,07,7.20
2015,01,28,16,08,7.20
2015,01,28,16,09,7.20
2015,01,28,16,10,7.20
2015,01,28,16,11,7.20
2015,01,28,16,12,7.20
2015,01,28,16,13,7.20
2015,01,28,16,14,7.10
2015,01,28,16,15,7.10
2015,01,28,16,16,7.10
2015,01,28,16,17,7.10
2015,01,28,16,18,7.00
2015,01,28,16,19,7.00
2015,01,28,16,20,7.00
2015,01,28,16,21,7.00
2015,01,28,16,22,7.00
2015,01,28,16,23,7.00
2015,01,28,16,24,7.00
2015,01,28,16,25,7.00
2015,01,28,16,26,7.00
2015,01,28,16,27,7.00
2015,01,28,16,28,6.90
2015,01,28,16,29,6.90
2015,01,28,16,30,6.90
2015,01,28,16,31,6.90
2015,01,28,16,32,6.90
2015,01,28,16,33,6.90
2015,01,28,16,34,6.90
2015,01,28,16,35,6.80
2015,01,28,16,36,6.80
2015,01,28,16,37,6.80
2015,01,28,16,38,6.80
2015,01,28,16,39,6.80
2015,01,28,16,40,6.80
2015,01,28,16,41,6.80
2015,01,28,16,42,6.80
2015,01,28,16,43,6.80
2015,01,28,16,44,6.80
2015,01,28,16,45,6.80
2015,01,28,16,46,6.80
2015,01,28,16,47,6.80
2015,01,28,16,48,6.70
2015,01,28,16,49,6.70
2015,01,28,16,50,6.70
2015,01,28,16,51,6.70
2015,01,28,16,52,6.70
2015,01,28,16,53,6.70
2015,01,28,16,54,6.70
2015,01,28,16,55,6.70
2015,01,28,16,56,6.70
2015,01,28,16,57,6.70
2015,01,28,16,58,6.60
2015,01,28,16,59,6.60
2015,01,28,17,00,6.60
2015,01,28,17,01,6.60
2015,01,28,17,02,6.60
2015,01,28,17,03,6.60
2015,01,28,17,04,6.60
2015,01,28,17,05,6.60
2015,01,28,17,06,6.60
2015,01,28,17,07,6.60
2015,01,28,17,08,6.60
2015,01,28,17,09,6.50
2015,01,28,17,10,6.50
2015,01,28,17,11,6.50
2015,01,28,17,12,6.50
2015,01,28,17,13,6.50
2015,01,28,17,14,6.40
2015,01,28,17,15,6.40
2015,01,28,17,16,6.40
2015,01,28,17,17,6.40
2015,01,28,17,18,6.40
2015,01,28,17,19,6.40
2015,01,28,17,20,6.30
2015,01,28,17,21,6.30
2015,01,28,17,22,6.30
2015,01,28,17,23,6.30
2015,01,28,17,24,6.30
2015,01,28,17,25,6.20
2015,01,28,17,26,6.20
2015,01,28,17,27,6.20
2015,01,28,17,28,6.20
2015,01,28,17,29,6.20
2015,01,28,17,30,6.20
2015,01,28,17,31,6.10
2015,01,28,17,32,6.10
2015,01,28,17,33,6.10
2015,01,28,17,34,6.10
2015,01,28,17,35,6.10
2015,01,28,17,36,6.00
2015,01,28,17,37,6.00
2015,01,28,17,38,6.00
2015,01,28,17,39,6.00
2015,01,28,17,40,5.90
2015,01,28,17,41,5.90
2015,01,28,17,42,5.90
2015,01,28,17,43,5.90
2015,01,28,17,44,5.90
2015,01,28,17,45,5.80
2015,01,28,17,46,5.80
2015,01,28,17,47,5.80
2015,01,28,17,48,5.80
2015,01,28,17,49,5.80
2015,01,28,17,50,5.80
2015,01,28,17,51,5.80
2015,01,28,17,52,5.80
2015,01,28,17,53,5.80
2015,01,28,17,54,5.80
2015,01,28,17,55,5.80
2015,01,28,17,56,5.70
2015,01,28,17,57,5.70
2015,01,28,17,58,5.70
2015,01,28,17,59,5.70
2015,01,28,18,00,5.70
2015,01,28,18,01,5.70
2015,01,28,18,02,5.70
2015,01,28,18,03,5.70
2015,01,28,18,04,5.60
2015,01,28,18,05,5.60
2015,01,28,18,06,5.60
2015,01,28,18,07,5.60
2015,01,28,18,08,5.60
2015,01,28,18,09,5.60
2015,01,28,18,10,5.60
2015,01,28,18,11,5.60
2015,01,28,18,12,5.60
2015,01,28,18,13,5.60
2015,01,28,18,14,5.60
2015,01,28,18,15,5.60
2015,01,28,18,16,5.60
2015,01,28,18,17,5.60
2015,01,28,18,18,5.60
2015,01,28,18,19,5.60
2015,01,28,18,20,5.50
2015,01,28,18,21,5.50
2015,01,28,18,22,5.50
2015,01,28,18,23,5.50
2015,01,28,18,24,5.50
2015,01,28,18,25,5.50
2015,01,28,18,26,5.50
2015,01,28,18,27,5.50
2015,01,28,18,28,5.40
2015,01,28,18,29,5.40
2015,01,28,18,30,5.40
2015,01,28,18,31,5.40
2015,01,28,18,32,5.40
2015,01,28,18,33,5.40
2015,01,28,18,34,5.40
2015,01,28,18,35,5.40
2015,01,28,18,36,5.40
2015,01,28,18,37,5.40
2015,01,28,18,38,5.40
2015,01,28,18,39,5.40
2015,01,28,18,40,5.40
2015,01,28,18,41,5.40
2015,01,28,18,42,5.40
2015,01,28,18,43,5.40
2015,01,28,18,44,5.40
2015,01,28,18,45,5.40
2015,01,28,18,46,5.40
2015,01,28,18,47,5.40
2015,01,28,18,48,5.50
2015,01,28,18,49,5.40
2015,01,28,18,50,5.40
2015,01,28,18,51,5.40
2015,01,28,18,52,5.40
2015,01,28,18,53,5.40
2015,01,28,18,54,5.30
2015,01,28,18,55,5.30
2015,01,28,18,56,5.30
2015,01,28,18,57,5.30
2015,01,28,18,58,5.30
2015,01,28,18,59,5.30
2015,01,28,19,00,5.30